Regional Weather Roundup
Issued by NWS

Current Version | Previous Version | Text Only | Print | Product List | Glossary On
Versions: 1 2 3 4 5 6 7 8 9 10 11 12 13 14 15 16 17 18 19 20 21 22 23 24 25 26 27 28 29 30 31 32 33 34 35 36 37 38 39 40 41 42 43 44 45 46 47 48 49 50
000
ASHW40 PHFO 140843
RWRHI

WEATHER ROUNDUP FOR HAWAII
NATIONAL WEATHER SERVICE HONOLULU HI
1000 PM HST SUN JUL 13 2014

THIS IS AN AUTOMATED REPORT THAT HAS NOT BEEN QUALITY CONTROLLED.

NOTE..."FAIR" INDICATES FEW OR NO CLOUDS BELOW 12,000 FEET WITH NO
SIGNIFICANT WEATHER AND/OR OBSTRUCTIONS TO VISIBILITY.

* - THESE SITES REPORT LIMITED FIELDS

HIZ001>004-140900-
KAUAI-NIIHAU-

CITY           SKY/WX    TMP DP  RH WIND       PRES   REMARKS
LIHUE APT      CLOUDY    79  73  83 NE12      30.10R
PORT ALLEN*      N/A     77 N/A N/A E9          N/A
POIPU*           N/A     77 N/A N/A NE8G14      N/A
PRINCEVILLE*   NOT AVBL
KOKOLE POINT*  NOT AVBL
MOLOAA DAIRY*  NOT AVBL
WAIMEA HTS*      N/A     73  64  73 N1          N/A
PUU OPAE*        N/A     66  61  82 CALM        N/A
PUU LUA*       NOT AVBL
MAKAHA RIDGE*  NOT AVBL
$$

HIZ005>011-140900-
OAHU-

CITY           SKY/WX    TMP DP  RH WIND       PRES   REMARKS
HONOLULU       PTCLDY    81  71  71 NE14      30.05R
KALAELOA       PTCLDY    79  70  74 NE3       30.07R
KANEOHE MCB    CLOUDY    77  70  78 E12G18    30.07R
WHEELER FIELD  FAIR      76  70  81 VRB3      30.08R
BELLOWS*         N/A    N/A N/A N/A NE15G21     N/A
KAHUKU*          N/A    N/A N/A N/A E10G18      N/A
WHEELER*       NOT AVBL
WAIANAE HARBOR NOT AVBL
DILLINGHAM*      N/A     79  68  69 E2G9        N/A
KAHUKU TRN*      N/A     75  72  88 E12G22      N/A
KAWAILOA*      NOT AVBL
KII*             N/A     79  73  83 E15         N/A
MAKUA RANGE*     N/A     75  70  83 E6          N/A
OAHU FOREST NW   N/A     70  70 100 N12G26      N/A
SCHOFIELD BRK*   N/A     75  68  78 SW1         N/A
SCHOFIELD S*   NOT AVBL
WAIANAE VLY*     N/A     79  68  69 W6G26       N/A
KUAOKALA*        N/A     75  70  83 CALM        N/A
HONOULIUULI*   NOT AVBL
MOKUOLOE IS*     N/A    N/A N/A N/A MISG        N/A
PALEHUA*         N/A     81  73  78 CALM        N/A
WAIAWA PHB*    NOT AVBL
$$

HIZ012>013-140900-
MOLOKAI-

CITY           SKY/WX    TMP DP  RH WIND       PRES   REMARKS
MOLOKAI AIRPT  CLEAR     76  76 100 NE15G24   30.06R
KALAUPAPA      NOT AVBL
MAKAPULAPAI*     N/A     77  73  88 E18G30      N/A
MOLOKAI 1*       N/A     70  66  88 E3G14       N/A
PUU ALII*        N/A     64  64  99 E3G12       N/A
$$

HIZ016-140900-
KAHOOLAWE-

CITY           SKY/WX    TMP DP  RH WIND       PRES   REMARKS
KAHOOLAWE*       N/A     73 N/A N/A E18G26      N/A
HAKIOAWA*        N/A     76  72  87 MISG      30.18R
HONOKANAIA*      N/A     80  73  77 NE12G31   30.06R
KANELOA*         N/A     77  73  88 E20G35    30.14S
KEALIALALO*      N/A    N/A N/A N/A E14G26    30.37R
LUA MAKIKA*    NOT AVBL
$$

HIZ014>015-140900-
LANAI-

CITY           SKY/WX    TMP DP  RH WIND       PRES   REMARKS
LANAI CITY     MOCLDY    75  73  94 NE9       30.12R
LANAI 1*         N/A     72  72 100 NE15G25     N/A
$$

HIZ017>028-140900-
MAUI-

CITY           SKY/WX    TMP DP  RH WIND       PRES   REMARKS
KAHULUI        MOCLDY    79  73  82 NE13      30.05R
KAPALUA-W MAUI NOT AVBL
HANA AIRPORT     N/A     75  75 100 E3        30.10R
HANA*            N/A     77 N/A N/A SE5         N/A
HALEAKALA SUMM   N/A     48  39  71 N8          N/A
MAALAEA BAY*   NOT AVBL
HALEAKALA*     NOT AVBL
KAUPO GAP*       N/A     66  66 100 NE7         N/A
KULA 1*          N/A     58  49  72 E3          N/A
$$

HIZ023>026-140900-
BIG ISLAND OF HAWAII COAST AND LOWER SLOPES-

CITY           SKY/WX    TMP DP  RH WIND       PRES   REMARKS
KAILUA KONA    CLOUDY    81  71  71 N9        30.02R
HILO           CLOUDY   N/A N/A N/A SW7       30.08R
HONOKAA*       NOT AVBL
KAWAIHAE MWT*    N/A     81 N/A N/A SW2         N/A
KAWAIHAE*        N/A     81 N/A N/A S2          N/A
SOUTH POINT*     N/A     73 N/A N/A NE17        N/A
UPOLU AIRPORT*   N/A    N/A N/A N/A E12         N/A
KAMUELA*       SUNNY     68  61  77 CALM      30.17S
HAKALAU*         N/A     57  56  98 SW3         N/A
KALOKO-HONOKO*   N/A     81  68  65 N3          N/A
PALI 2*          N/A     66  66 100 N13G21      N/A
KEALAKOMO*       N/A     77  77 100 CALM        N/A
KAUPULEHU*       N/A     75  66  73 NE5         N/A
KAPAPALA*        N/A     70  68  93 N3          N/A
LOWER KAHUKU*  NOT AVBL
PUHE CS*       NOT AVBL
PUHO CS*         N/A     79  67  66 N1          N/A
PTA KEAMUKU*     N/A     66  61  82 S5          N/A
WAIKOLOA*        N/A     75  61  60 E6          N/A
$$

HIZ027>028-140900-
BIG ISLAND OF HAWAII INTERIOR AND SUMMMITS-

CITY           SKY/WX    TMP DP  RH WIND       PRES   REMARKS
BRADSHAW FIELD CLOUDY    61  56  84 SE12G18   30.42S
MK VISITOR CEN NOT AVBL
MAUNA KEA*       N/A     36  34  93 E14         N/A  WCI  27
MAUNA LOA*       N/A     46  37  71 MISG        N/A
MAUNA LOA 1*   NOT AVBL
PTA KIPUKA*      N/A    N/A N/A N/A E3          N/A
PTA RANGE 17*    N/A     63  57  82 SE3G18      N/A
PTA WEST*        N/A     64  63  94 VRB2        N/A
NENE CABIN*    NOT AVBL
AHUMOA*          N/A     59  53  81 SE2         N/A
PTA PORTABLE*  NOT AVBL
PUU MALI*      NOT AVBL
$$

HIC003-140900-
NORTHWEST ISLANDS-

CITY           SKY/WX    TMP DP  RH WIND       PRES   REMARKS
MIDWAY ISLAND  MOCLDY    79  72  78 E9          N/A
MIDWAY NOS*    NOT AVBL
FRENCH FRIGATE NOT AVBL
$$

PHZ110>124-180-140900-
BUOY REPORTS

STATION/POSITION TIME  TEMP    WIND        PRES    WAVE   SWELL
                       AIR SEA DIR/SP/G            HT/PER HT/DIR
                 (UTC) (F)     (DEG/KT/KT) (MB)    (FT/S) (FT/D)
BUOY 51001       NOT AVBL
BUOY 51101       0800   79 79   90/  8/ 12 1019.0R   5/14   5/190
BUOY 51100       0800   77 77   90/ 12/ 14 1020.1R
BUOY 51003       0800   80 81   60/ 12/ 16 1016.8R   5/ 9   3
BUOY 51004       0745   79 79   90/ 17/ 21 1016.9R   7/13   5/170
BARBERS PT BUOY  NOT AVBL
WAIMEA BAY BUOY  0800      80                N/A     3/13   2/300
KAILUA BAY BUOY  0800      79                N/A     6/ 9   2/100
LANAI BUOY       0800      80                N/A     3/13   2/200
BARBERS PT 2     0800      80                N/A     4/17   3/200
PAUWELA MAUI     0800      79                N/A     7/ 7   2/ 90
HILO             NOT AVBL
KANEOHE BAY BUOY 0800      79                N/A     5/ 7   2/ 80
HANALEI KAUAI    0800      79                N/A     5/ 7   2/290
KAHULUI HARBOR   0800   78 80   60/ 12/ 17 1017.4R
HONOLULU HARBOR  0800   80      90/  3/  8 1017.9R
KILO NALU        NOT AVBL
HILO HARBOR      0800   74     210/  6/  8 1018.1R
MOKUOLOE         0800   79 82   90/ 12/ 15 1018.5R
NAWILIWILI       0800      80                N/A
WHOTS BUOY       NOT AVBL
BUOY 51028       NOT AVBL
$$

......................KEY........................................
  SKY/WX - SKY CONDITIONS/PRESENT WEATHER
  TMP    - TEMPERATURE IN FAHRENHEIT
  DWPT   - DEWPOINT IN FAHRENHEIT
  RH     - RELATIVE HUMIDITY IN PERCENT
  WIND   - DIRECTION AND SPEED /MPH FOR ISLANDS...KTS FOR BUOYS/
  PRES   - MEAN SEA LEVEL PRESSURE IN INCHES OF HG
  VSB    - VISIBILITY IN MILES
  HX     - HEAT INDEX
  WCI    - WIND CHILL INDEX
  VRB    - VARIABLE WIND DIRECTION
  N/A    - NOT AVAILABLE


USA.gov is the U.S. government's official web portal to all federal, state and local government web resources and services.